Regional Weather Roundup
Issued by NWS

Home | Current Version | Previous Version | Text Only | Print | Product List | Glossary Off
Versions: 1 2 3 4 5 6 7 8 9 10 11 12 13 14 15 16 17 18 19 20 21 22 23 24 25 26 27 28 29 30 31 32 33 34 35 36 37 38 39 40 41 42 43 44 45 46 47 48 49 50

000
ASUS45 KTFX 242219
RWRMT
MONTANA HOURLY WEATHER ROUNDUP
NATIONAL WEATHER SERVICE GREAT FALLS MT
419 PM MDT THU JUL 24 2014

NOTE: "FAIR" INDICATES FEW OR NO CLOUDS BELOW 12000 FEET WITH NO
SIGNIFICANT WEATHER AND/OR OBSTRUCTIONS TO VISIBILITY.

* THESE STATIONS ARE NOT UNDER NWS QUALITY CONTROL. THEY DO NOT
   REPORT WEATHER SUCH AS PRECIPITATION OR FOG.

MTZ001>007-043-242300-
WEST OF THE DIVIDE
CITY           SKY/WX    TMP DP  RH WIND       PRES   REMARKS
KALISPELL      PTSUNNY   64  39  40 W14G26    30.09R
MISSOULA       PTSUNNY   68  32  26 W17G25    30.11F
BUTTE          SUNNY     72  27  19 W22G31    30.08S
MULLAN PASS    CLOUDY    43  37  79 SW10G21   30.19S
* ESSEX        N/A       56  40  55 NE1G16     N/A
* LINCOLN      N/A       65  37  36 SW8G22     N/A
* LOOKOUT PASS N/A       50  41  71 S5G15      N/A
* POLSON       N/A       64  36  35 SW4G12     N/A
* RONAN APT    PTCLDY    64  37  37 W13G18     N/A
* SEELEY LAKE  N/A       64  33  31 W10G21     N/A
* THOMP F APT  PTSUNNY   79  26  14 S16G31     N/A
$$

MTZ008-052>055-242300-
SOUTHWEST MONTANA
CITY           SKY/WX    TMP DP  RH WIND       PRES   REMARKS
BOZEMAN        PTCLDY    77  46  33 N14       29.96R
DILLON         SUNNY     75  28  18 W16G25    30.03S
W YELLOWSTONE  SUNNY     73  30  20 SW26G37   30.12F
* THREE FORKS  SUNNY     77  52  42 N14G24     N/A
* BOULDER HILL N/A       68  35  30 S16G27     N/A
* MONIDA PASS  N/A       75  26  16 S25G32     N/A
* RAYNOLDS PAS N/A       74  60  62 S27G36     N/A
* WHITEHALL    N/A       82  38  21 W15G28     N/A
* WISE RIVER   N/A       70  34  27 NW19G31    N/A
$$

MTZ009>010-012-014-046-048-049-054-242300-
EAST SLOPES AND CENTRAL MONTANA
CITY           SKY/WX    TMP DP  RH WIND       PRES   REMARKS
CUT BANK       SUNNY     66  36  33 SW36G52   29.94R
GREAT FALLS    SUNNY     73  28  19 SW29G39   29.94R
HELENA         SUNNY     75  32  21 W18G30    30.02F
MALMSTROM AFB  PTCLDY    73  30  20 W24G44    29.96S
* CONRAD       SUNNY     70  36  29 W13G29     N/A
* DEARBORN     N/A       70  32  25 SW16G32    N/A
* EAST GLACIER N/A       56  35  45 W13G35     N/A
* MONARCH      N/A       67  31  26 W24G34     N/A
* SAINT MARY   N/A       59  35  41 W13G29     N/A
* SWEET GRASS  N/A       67  29  24 W35G48     N/A
* WHITE SULPH  N/A       71  42  35 NW15G29    N/A
$$

MTZ011-013-016-021-035-040-045-047-050-051-242300-
NORTH CENTRAL MONTANA
CITY           SKY/WX    TMP DP  RH WIND       PRES   REMARKS
HAVRE          CLOUDY    64  46  52 W13       29.89F
LEWISTOWN      CLOUDY    73  43  34 NW21G38   29.94R
* CHINOOK      PTSUNNY   68  46  45 W14G24    29.86F
* FORT BENTON  PTSUNNY   75  28  18 SW20G31   29.91F
* CHESTER      N/A       69  34  28 W20G36     N/A
* DENTON       N/A       69  40  35 NW18G37    N/A
* JUDITH GAP   N/A       72  48  43 NW22G29    N/A
* LOMA         N/A       72  42  34 SW18G24    N/A
$$

MTZ017>020-022>027-061-062-242300-
NORTHEAST MONTANA
CITY           SKY/WX    TMP DP  RH WIND       PRES   REMARKS
GLASGOW        SUNNY     91  59  34 VRB5      29.64F
GLENDIVE       SUNNY     93  63  37 S12       29.68F
JORDAN         PTCLDY    91  55  30 NW20      29.64F
SIDNEY         SUNNY     86  66  51 S8        29.69F HI  88
WOLF POINT     SUNNY     93  61  34 VRB7      29.64F
* BEAVER HILL  N/A       84  67  57 SE19G27    N/A   HI  87
* CIRCLE       N/A       95  64  36 S5G10      N/A
* LINDSAY DVD  N/A       90  62  39 S12G17     N/A
* NAVAJO       N/A       85  62  46 SE13       N/A   HI  86
$$

MTZ028>042-056>058-242300-
SOUTHCENTRAL AND SOUTHEAST MONTANA
CITY           SKY/WX    TMP DP  RH WIND       PRES   REMARKS
BAKER          SUNNY     91  64  41 E13       29.74F HI  93
BILLINGS       PTCLDY    97  30   9 W30G43    29.76S
LIVINGSTON     PTCLDY    88  36  16 W24G32    29.89S
MILES CITY     SUNNY    100  52  20 N/A       29.65F
* LAUREL APT   SUNNY     97  30   9 SW25       N/A
* ROUNDUP APT  PTCLDY    91  50  25 NW18G23    N/A
* ALZADA       N/A       99  57  25 N/A        N/A
* HYSHAM       N/A       98  47  18 W11G18     N/A
* LAME DEER    N/A       92  45  20 W4G9       N/A
* REED POINT   N/A       90  44  20 W26G35     N/A
* ROSCOE HILL  N/A       89  28  11 SW14G24    N/A
$$

REGIONAL REPORTS...DAKOTAS
CITY           SKY/WX    TMP DP  RH WIND       PRES   REMARKS
WILLISTON      SUNNY     84  63  49 S9        29.71S HI  85
DICKINSON      SUNNY     81  68  65 E17       29.74F HI  84
CROSBY         SUNNY     77  70  79 SE9       29.73F
TIOGA          SUNNY     79  70  74 SE8       29.77R
BISMARCK       CLOUDY    81  64  56 S13       29.82R HI  83
GRAND FORKS    PTCLDY    77  61  58 SE10G24   29.88F
FARGO          SUNNY     77  61  58 S17G25    29.86F
BUFFALO SD     SUNNY     90  66  45 SE6       29.68F HI  92
RAPID CITY     PTSUNNY   90  72  56 W5        29.76F HI  98
$$

REGIONAL REPORTS...WYOMING/IDAHO/WASHINGTON
CITY           SKY/WX    TMP DP  RH WIND       PRES   REMARKS
GILLETTE       PTSUNNY  100  37  11 W15G28    29.81F
SHERIDAN       PTSUNNY  100  43  14 NW14      29.77F
YELLOWSTONE LA SUNNY     68  27  21 W9G23     30.25F
SALMON         SUNNY     81  27  14 NW7       29.97F
MULLAN PASS    CLOUDY    43  37  79 SW10G21   30.19S
SAND POINT     CLOUDY    55  48  77 SW6       30.11S
SPOKANE        CLOUDY    63  41  45 SW20      30.12S
$$

REGIONAL REPORTS...ALBERTA
CITY           SKY/WX    TMP DP  RH WIND       PRES   REMARKS
CALGARY        SUNNY     66  34  31 W23G36    29.72F
LETHBRIDGE     PTSUNNY   66  37  34 W32G43    29.84R
MEDICINE HAT   PTSUNNY   66  39  37 SW21G30   29.80F
EDMONTON       PTCLDY    77  46  33 SW6       29.55F
WATERTON GATE  N/A       61  36  39 SW21G37    N/A
CARDSTON       N/A       63  37  38 W17G26     N/A
MILK RIVER     N/A       68  32  26 W21G30     N/A
$$

REGIONAL REPORTS...SASKATCHEWAN
CITY           SKY/WX    TMP DP  RH WIND       PRES   REMARKS
SWIFT CURRENT  TSTM      59  55  87 NW24G36   29.77R
MOOSE JAW      PTCLDY    84  63  49 S10       29.67F HI  85
REGINA         PTCLDY    84  63  49 SE8G17    29.69F HI  85
VAL MARIE      N/A       70  64  81 NW12       N/A
ASSINIBOIA     N/A       77  61  58 SE3        N/A
CORONACH       N/A       84  61  46 SE7        N/A   HI  84

$$



USA.gov is the U.S. government's official web portal to all federal, state and local government web resources and services.